{"data":{"norad_id":58056,"epoch":"2026-09-20T08:37:02.993952Z","epoch_age_seconds":149836,"freshness":"FRESH","line1":"1 58056U 23158F   26263.35906243  .00001203  00000+0  53236-4 0  9992","line2":"2 58056  43.0054   7.5297 0001614 279.7458  80.3211 15.27577031163346","mean_motion":15.27577031,"eccentricity":0.0001614,"inclination_deg":43.0054,"raan_deg":7.5297,"arg_perigee_deg":279.7458,"mean_anomaly_deg":80.3211,"bstar":5.3236e-5,"rev_number":16334,"period_min":94.266931930584,"perigee_km":481.95058943735,"apogee_km":484.16538317893,"semimajor_km":6861.1949863081,"source":"CELESTRAK","updated_at":"2026-09-21T09:00:33.777939Z"}}